Location: Middle Street
(51.7167°N, 0.0333°E)
Time: 22:44:23
(UTC+00:00)

Cosmos 2228 - Pass Details

Date: 20 January 2021
Orbit: 589 x 617 km, 82.5° (Epoch: 01 March)

Event Time Altitude Azimuth Distance (km) Brightness Sun altitude
Rises 17:00:47 0° 353° (N) 2,840 6.3 -5.3°
Reaches altitude 10° 17:03:05 10° 0° (N) 1,936 5.4 -5.6°
Maximum altitude 17:07:11 44° 74° (ENE) 830 3.3 -6.2°
Drops below altitude 10° 17:11:16 10° 147° (SSE) 1,933 5.5 -6.8°
Sets 17:13:33 0° 154° (SSE) 2,834 6.4 -7.1°
